timestamp,surface_pressure_avg,surface_temp_avg,battery_voltage,lat,long
2018-08-05 00:00:00+00:00,221.5964,16.6,13.05,47.84626,-54.09684
2018-08-05 00:10:00+00:00,225.9231,16.6,12.97,47.84626,-54.09684
2018-08-05 00:20:00+00:00,224.5598,16.5,13.05,47.84626,-54.09684
2018-08-05 00:30:00+00:00,223.0181,16.5,13.05,47.84626,-54.09684
2018-08-05 00:40:00+00:00,226.1615,16.5,13.13,47.84626,-54.09684
2018-08-05 00:50:00+00:00,229.7481,16.5,13.13,47.84626,-54.09684
2018-08-05 01:00:00+00:00,229.8681,16.44,13.05,47.84626,-54.09684
2018-08-05 01:10:00+00:00,231.2381,16.4,12.97,47.84626,-54.09684
2018-08-05 01:20:00+00:00,236.0981,16.3,13.05,47.84626,-54.09684
2018-08-05 01:30:00+00:00,240.5248,16.2,13.05,47.84626,-54.09684
2018-08-05 01:40:00+00:00,242.2831,16.2,13.05,47.84626,-54.09684
2018-08-05 01:50:00+00:00,246.0048,16.25,13.05,47.84626,-54.09684
2018-08-05 02:00:00+00:00,251.3881,16.26,13.05,47.84626,-54.09684
2018-08-05 02:10:00+00:00,255.8197,16.29,12.97,47.84626,-54.09684
2018-08-05 02:20:00+00:00,259.7731,16.38,13.05,47.84626,-54.09684
2018-08-05 02:30:00+00:00,264.7197,16.44,13.05,47.84626,-54.09684
2018-08-05 02:40:00+00:00,270.3914,16.5,13.05,47.84626,-54.09684
2018-08-05 02:50:00+00:00,274.6331,16.5,13.05,47.84626,-54.09684
2018-08-05 03:00:00+00:00,279.5314,16.51,13.05,47.84626,-54.09684
2018-08-05 03:10:00+00:00,289.633,16.29,12.97,47.84626,-54.09684
2018-08-05 03:20:00+00:00,296.6031,16.53,12.97,47.84626,-54.09684
2018-08-05 03:30:00+00:00,300.7313,16.63,13.05,47.84626,-54.09684
2018-08-05 03:40:00+00:00,303.1514,16.68,13.05,47.84626,-54.09684
2018-08-05 03:50:00+00:00,307.0063,16.6,13.05,47.84626,-54.09684
2018-08-05 04:00:00+00:00,308.493,16.5,12.97,47.84626,-54.09684
2018-08-05 04:10:00+00:00,311.593,16.57,12.89,47.84626,-54.09684
2018-08-05 04:20:00+00:00,316.0414,16.6,12.97,47.84626,-54.09684
2018-08-05 04:30:00+00:00,319.5114,16.6,12.97,47.84626,-54.09684
2018-08-05 04:40:00+00:00,318.8497,16.69,12.97,47.84626,-54.09684
2018-08-05 04:50:00+00:00,322.1047,16.7,12.97,47.84626,-54.09684
2018-08-05 05:00:00+00:00,325.2614,16.76,12.97,47.84626,-54.09684
2018-08-05 05:10:00+00:00,324.983,16.78,12.89,47.84626,-54.09684
2018-08-05 05:20:00+00:00,324.4314,16.8,12.97,47.84626,-54.09684
2018-08-05 05:30:00+00:00,324.783,16.8,12.97,47.84626,-54.09684
2018-08-05 05:40:00+00:00,322.6746,16.8,12.97,47.84626,-54.09684
2018-08-05 05:50:00+00:00,319.4313,16.8,12.97,47.84626,-54.09684
2018-08-05 06:00:00+00:00,317.1563,16.8,12.97,47.84626,-54.09684
2018-08-05 06:10:00+00:00,314.5912,16.8,12.89,47.84626,-54.09684
2018-08-05 06:20:00+00:00,309.378,16.8,12.89,47.84626,-54.09684
2018-08-05 06:30:00+00:00,304.9363,16.82,12.97,47.84626,-54.09684
2018-08-05 06:40:00+00:00,303.473,16.85,12.97,47.84626,-54.09684
2018-08-05 06:50:00+00:00,299.5613,16.89,12.97,47.84626,-54.09684
2018-08-05 07:00:00+00:00,290.6631,16.94,12.89,47.84626,-54.09684
2018-08-05 07:10:00+00:00,285.7731,17.0,12.81,47.84626,-54.09684
2018-08-05 07:20:00+00:00,284.6014,17.09,12.89,47.84626,-54.09684
2018-08-05 07:30:00+00:00,280.9913,17.2,12.89,47.84626,-54.09684
2018-08-05 07:40:00+00:00,273.028,17.29,12.97,47.84626,-54.09684
2018-08-05 07:50:00+00:00,267.8597,17.3,12.97,47.84626,-54.09684
2018-08-05 08:00:00+00:00,262.8081,17.34,12.89,47.84626,-54.09684
2018-08-05 08:10:00+00:00,254.4081,17.38,12.81,47.84626,-54.09684
2018-08-05 08:20:00+00:00,247.8514,17.39,12.89,47.84626,-54.09684
2018-08-05 08:30:00+00:00,242.4431,17.39,12.89,47.84626,-54.09684
2018-08-05 08:40:00+00:00,237.3747,17.37,12.97,47.84626,-54.09684
2018-08-05 08:50:00+00:00,231.6848,17.35,12.97,47.84626,-54.09684
2018-08-05 09:00:00+00:00,225.8714,17.34,12.89,47.84626,-54.09684
2018-08-05 09:10:00+00:00,220.4131,17.33,12.81,47.84626,-54.09684
2018-08-05 09:20:00+00:00,217.9998,17.32,12.89,47.84626,-54.09684
2018-08-05 09:30:00+00:00,212.0215,17.32,12.89,47.84626,-54.09684
2018-08-05 09:40:00+00:00,205.7514,17.32,12.97,47.84626,-54.09684
2018-08-05 09:50:00+00:00,207.6047,17.3,12.97,47.84626,-54.09684
2018-08-05 10:00:00+00:00,207.1348,17.3,12.97,47.84626,-54.09684
2018-08-05 10:10:00+00:00,200.4631,17.3,12.89,47.84626,-54.09684
2018-08-05 10:20:00+00:00,199.1498,17.35,12.97,47.84626,-54.09684
2018-08-05 10:30:00+00:00,204.538,17.34,12.97,47.84626,-54.09684
2018-08-05 10:40:00+00:00,205.1714,17.33,12.97,47.84626,-54.09684
2018-08-05 10:50:00+00:00,202.4248,17.3,13.05,47.84626,-54.09684
2018-08-05 11:00:00+00:00,203.9598,17.3,12.97,47.84626,-54.09684
2018-08-05 11:10:00+00:00,208.6998,17.39,12.89,47.84626,-54.09684
2018-08-05 11:20:00+00:00,211.8148,17.47,12.97,47.84626,-54.09684
2018-08-05 11:30:00+00:00,213.7631,17.5,12.97,47.84626,-54.09684
2018-08-05 11:40:00+00:00,215.8798,17.59,13.05,47.84626,-54.09684
2018-08-05 11:50:00+00:00,216.8081,17.6,13.05,47.84626,-54.09684
2018-08-05 12:00:00+00:00,218.0564,17.6,13.05,47.84626,-54.09684
2018-08-05 12:10:00+00:00,220.1648,17.65,13.05,47.84626,-54.09684
2018-08-05 12:20:00+00:00,222.1298,17.68,13.05,47.84626,-54.09684
2018-08-05 12:30:00+00:00,225.0764,17.7,13.13,47.84626,-54.09684
2018-08-05 12:40:00+00:00,228.3715,17.7,13.21,47.84626,-54.09684
2018-08-05 12:50:00+00:00,228.2047,17.7,13.21,47.84626,-54.09684
2018-08-05 13:00:00+00:00,229.4348,17.7,13.21,47.84626,-54.09684
2018-08-05 13:10:00+00:00,234.1396,17.7,13.13,47.84626,-54.09684
2018-08-05 13:20:00+00:00,234.8831,17.7,13.21,47.84626,-54.09684
2018-08-05 13:30:00+00:00,234.3314,17.7,13.29,47.84626,-54.09684
2018-08-05 13:40:00+00:00,239.0598,17.7,13.37,47.84626,-54.09684
2018-08-05 13:50:00+00:00,244.9698,17.7,13.44,47.84626,-54.09684
2018-08-05 14:00:00+00:00,244.9032,17.7,13.53,47.84626,-54.09684
2018-08-05 14:10:00+00:00,246.1114,17.7,13.53,47.84626,-54.09684
2018-08-05 14:20:00+00:00,252.3097,17.7,13.68,47.84626,-54.09684
2018-08-05 14:30:00+00:00,257.5048,17.69,13.68,47.84626,-54.09684
2018-08-05 14:40:00+00:00,261.1498,17.68,13.68,47.84626,-54.09684
2018-08-05 14:50:00+00:00,268.2714,17.65,13.68,47.84626,-54.09684
2018-08-05 15:00:00+00:00,274.673,17.63,13.68,47.84626,-54.09684
2018-08-05 15:10:00+00:00,277.2531,17.7,13.6,47.84626,-54.09684
2018-08-05 15:20:00+00:00,280.8714,17.75,13.76,47.84626,-54.09684
2018-08-05 15:30:00+00:00,290.8981,17.72,13.76,47.84626,-54.09684
2018-08-05 15:40:00+00:00,296.0747,17.7,13.84,47.84626,-54.09684
2018-08-05 15:50:00+00:00,297.2531,17.79,13.76,47.84626,-54.09684
2018-08-05 16:00:00+00:00,301.408,17.79,13.68,47.84626,-54.09684
2018-08-05 16:10:00+00:00,308.2631,17.61,13.6,47.84626,-54.09684
2018-08-05 16:20:00+00:00,306.863,17.76,13.76,47.84626,-54.09684
2018-08-05 16:30:00+00:00,305.9563,17.8,13.84,47.84626,-54.09684
2018-08-05 16:40:00+00:00,311.2847,17.5,13.84,47.84626,-54.09684
2018-08-05 16:50:00+00:00,316.3181,17.58,13.92,47.84626,-54.09684
2018-08-05 17:00:00+00:00,315.308,17.67,13.84,47.84626,-54.09684
2018-08-05 17:10:00+00:00,319.228,17.6,13.76,47.84626,-54.09684
2018-08-05 17:20:00+00:00,324.5331,17.5,13.84,47.84626,-54.09684
2018-08-05 17:30:00+00:00,325.2014,17.59,13.84,47.84626,-54.09684
2018-08-05 17:40:00+00:00,320.1414,17.6,13.84,47.84626,-54.09684
2018-08-05 17:50:00+00:00,323.8197,17.6,13.84,47.84626,-54.09684
2018-08-05 18:00:00+00:00,329.6545,17.56,13.76,47.84626,-54.09684
2018-08-05 18:10:00+00:00,328.0063,17.66,13.68,47.84626,-54.09684
2018-08-05 18:20:00+00:00,324.7712,17.7,13.76,47.84626,-54.09684
2018-08-05 18:30:00+00:00,326.558,17.5,13.76,47.84626,-54.09684
2018-08-05 18:40:00+00:00,325.4814,17.6,13.84,47.84626,-54.09684
2018-08-05 18:50:00+00:00,320.658,17.7,13.84,47.84626,-54.09684
2018-08-05 19:00:00+00:00,322.8164,17.59,13.76,47.84626,-54.09684
2018-08-05 19:10:00+00:00,323.6714,17.59,13.6,47.84626,-54.09684
2018-08-05 19:20:00+00:00,315.3312,17.69,13.6,47.84626,-54.09684
2018-08-05 19:30:00+00:00,309.8614,17.7,13.53,47.84626,-54.09684
2018-08-05 19:40:00+00:00,307.108,17.7,13.53,47.84626,-54.09684
2018-08-05 19:50:00+00:00,302.6447,17.7,13.53,47.84626,-54.09684
2018-08-05 20:00:00+00:00,290.9681,17.72,13.44,47.84626,-54.09684
2018-08-05 20:10:00+00:00,284.3597,17.7,13.29,47.84626,-54.09684
2018-08-05 20:20:00+00:00,281.9347,17.7,13.37,47.84626,-54.09684
2018-08-05 20:30:00+00:00,275.9431,17.71,13.29,47.84626,-54.09684
2018-08-05 20:40:00+00:00,270.4047,17.73,13.37,47.84626,-54.09684
2018-08-05 20:50:00+00:00,267.5914,17.7,13.37,47.84626,-54.09684
2018-08-05 21:00:00+00:00,262.5948,17.71,13.29,47.84626,-54.09684
2018-08-05 21:10:00+00:00,255.1314,17.72,13.21,47.84626,-54.09684
2018-08-05 21:20:00+00:00,249.6281,17.75,13.21,47.84626,-54.09684
2018-08-05 21:30:00+00:00,244.2431,17.78,13.21,47.84626,-54.09684
2018-08-05 21:40:00+00:00,233.5164,17.79,13.21,47.84626,-54.09684
2018-08-05 21:50:00+00:00,228.0881,17.8,13.21,47.84626,-54.09684
2018-08-05 22:00:00+00:00,228.3198,17.8,13.13,47.84626,-54.09684
2018-08-05 22:10:00+00:00,221.5781,17.8,13.05,47.84626,-54.09684
2018-08-05 22:20:00+00:00,215.1364,17.8,13.13,47.84626,-54.09684
2018-08-05 22:30:00+00:00,217.9231,17.8,13.13,47.84626,-54.09684
2018-08-05 22:40:00+00:00,217.7248,17.79,13.13,47.84626,-54.09684
2018-08-05 22:50:00+00:00,210.9064,17.8,13.13,47.84626,-54.09684
2018-08-05 23:00:00+00:00,209.3565,17.8,13.05,47.84626,-54.09684
2018-08-05 23:10:00+00:00,211.8581,17.8,13.05,47.84626,-54.09684
2018-08-05 23:20:00+00:00,207.9564,17.8,13.05,47.84626,-54.09684
2018-08-05 23:30:00+00:00,203.6548,17.8,13.05,47.84626,-54.09684
2018-08-05 23:40:00+00:00,205.5364,17.8,13.13,47.84626,-54.09684
2018-08-05 23:50:00+00:00,207.3731,17.8,13.13,47.84626,-54.09684
